Hourly Data Report for October 27, 2016

All times are specified in Local Standard Time (LST). Add 1 hour to adjust for Daylight Saving Time where and when it is observed.

SAINT JOHN A
NEW BRUNSWICK

45°18'58.000" N
65°53'24.000" W
108.80 m
8104901
71609
YSJ

Download Data

Hourly Data (October 2016)
Hourly Data Report for October 27, 2016
Temp Definition
°C
Dew Point Temp Definition
°C
Rel Hum Definition
%
Wind Dir Definition
10's deg

Wind Spd Definition
km/h
Visibility Definition
km
Stn Press Definition
kPa
Hmdx Definition


Wind Chill Definition


Weather Definition


TIME
00:00 Legend Double Dagger 3.1 1.3 88 36 25 24.1 101.42     LegendNANA
01:00 Legend Double Dagger 2.9 1.6 91 1 27 24.1 101.47     LegendNANA
02:00 Legend Double Dagger 2.6 1.3 91 2 21 24.1 101.53     Cloudy
03:00 Legend Double Dagger 2.3 1.1 92 36 29 24.1 101.56     LegendNANA
04:00 Legend Double Dagger 1.8 1.1 95 2 21 24.1 101.59     LegendNANA
05:00 Legend Double Dagger 1.7 1.1 96 2 21 24.1 101.65     Mostly Cloudy
06:00 Legend Double Dagger 1.9 1.2 95 2 17 24.1 101.71     LegendNANA
07:00 Legend Double Dagger 1.8 1.4 97 2 18 24.1 101.79     LegendNANA
08:00 Legend Double Dagger 1.7 0.7 93 36 20 24.1 101.86     Cloudy
09:00 Legend Double Dagger 2.4 0.9 90 3 15 24.1 101.93     LegendNANA
10:00 Legend Double Dagger 3.5 0.9 83 2 20 24.1 101.95     LegendNANA
11:00 Legend Double Dagger 5.0 0.6 73 3 21 24.1 101.95     Mostly Cloudy
12:00 Legend Double Dagger 6.0 -0.5 63 5 21 24.1 101.94     LegendNANA
13:00 Legend Double Dagger 6.1 -1.1 60 2 19 24.1 101.89     LegendNANA
14:00 Legend Double Dagger 6.3 -1.6 57 4 18 24.1 101.85     Mostly Cloudy
15:00 Legend Double Dagger 6.0 -2.4 55 2 21 24.1 101.85     LegendNANA
16:00 Legend Double Dagger 5.6 -2.2 57 2 6 24.1 101.84     LegendNANA
17:00 Legend Double Dagger 4.2 -1.8 65 3 9 24.1 101.85     Mostly Cloudy
18:00 Legend Double Dagger 0.0 -2.4 84 2 8 24.1 101.85   -3 LegendNANA
19:00 Legend Double Dagger -0.8 -2.2 90 8 3 24.1 101.89   -2 LegendNANA
20:00 Legend Double Dagger -1.7 -2.3 96 36 1 24.1 101.91   -2 Mainly Clear
21:00 Legend Double Dagger -0.4 -1.3 94 4 5 24.1 101.92   -2 LegendNANA
22:00 Legend Double Dagger -0.7 -1.7 93 3 7 24.1 101.89   -3 LegendNANA
23:00 Legend Double Dagger 0.4 -1.2 89 2 9 24.1 101.89     Mostly Cloudy

Notes on Data Quality.

Legend

  • E = Estimated
  • M = Missing
  • NA = Not Available
  • ‡ = Partner data that is not subject to review by the National Climate Archives
Date modified: